map of NVT home
NVT - Airport
Location
City:  Navegantes, Santa Catarina, Brazil
Name:Ministro Victor Konder International Airport
ICAO:SBNF
IATA:NVT

Details
Type:Airport (Aerodrome, Airfield)
Use:Public/Civil, International (customs port of entry)
Latitude:26°52'43"S (-26.878610)
Longitude:48°39'03"W (-48.650832)
Elevation:16 ft (5 m)
Variation:19.44°W (WMM2015 magnetic declination)
-0.14° annual change
Runways:1
Longest:5581 × 148 ft (1701 × 45 m), paved

Time
Time Zone:UTC-3 (DST-2)
Local Time:

Weather
METAR:SBNF 242300Z 00000KT CAVOK 18/17 Q1018
TAF:SBNF 241530Z 2418/2518 35005KT 9999 SCT020 TN18/2510Z TX23/2516Z PROB30
TEMPO 2509/2514 27002KT
BECMG 2514/2516 02006KT
RMK PDN

Related Locations
Nearby:
Farthest:KTD: 12366 mi / 19900 km
Kitadaito [Kitadaito Airport], Kitadaito Island, 47, JP

Find:

   beyond  
but within

Other Information
Maps:
NOTAMs:
Links:
Sources:

  
flag of Brazil
flag of Santa Catarina
  

Sectional Chart

Flight Planning
at skyvector.com

Satellite Image

Google Maps Satellite view

 

Copyright © 2004-2017 Karl L. Swartz. All rights reserved.
The Great Circle Mapper name and logo are trademarks of the Great Circle Mapper.
All other trademarks mentioned herein belong to their respective owners.
Please see credits for attibutions and further copyright information.

  Follow gcmap on Facebook Follow gcmap on Twitter Follow gcmap on Google+ GCmap on LinkedIn

hCard Microformat

Geo Microformat